Fort Eustis, VA

3:25 AM EST on November 18, 2019 (GMT -0500)
Felker Army Air Field

Weather History for KFAF - September, 2019

Change the Weather History Date:

Friday, September 6, 2019

  Actual Average Record
Temperature  
Mean Temperature 72 °F -  
Max Temperature 76 °F 80 °F 91 °F (2014)
Min Temperature 66 °F 66 °F 60 °F (2001)
Cooling Degree Days 6    
Growing Degree Days 22 (Base 50)    
Moisture  
Dew Point 66 °F    
Average Humidity 79    
Maximum Humidity 84    
Minimum Humidity 69    
Precipitation  
Precipitation 0.22 in - - ()
Sea Level Pressure  
Sea Level Pressure 29.69 in    
Wind  
Wind Speed 12 mph ()    
Max Wind Speed 21 mph    
Max Gust Speed 31 mph    
Visibility 9.7 miles    
Events Rain    
Averages and records for this station are not official NWS values.
T = Trace of Precipitation, MM = Missing Value Source: Averaged Metar Reports

Daily Weather History Graph

Daily Weather History Graph

Search for Another Location

Airport or City:

Astronomy

Sep. 06, 2019 Rise Set
Actual Time 6:41 AM EDT 7:28 PM EDT
Civil Twilight 6:14 AM EDT 7:54 PM EDT
Nautical Twilight 5:43 AM EDT 8:25 PM EDT
Astronomical Twilight 5:11 AM EDT 8:57 PM EDT
Moon 2:36 PM EDT (9/6) No Moon Set
Length of Visible Light 13h 39m
Length of Day
12h 47m
First Quarter, 55% of the Moon is Illuminated
Sep 6
First Quarter
Sep 14
Full
Sep 21
Last Quarter
Sep 28
New
Oct 5
First Quarter

Hourly Weather History & Observations

Time (EDT) Temp. Dew Point Humidity Pressure Visibility Wind Dir Wind Speed Gust Speed Precip Events Conditions
12:13 AM 77.0 °F 69.8 °F 78% 29.81 in 10.0 mi NE 10.4 mph 20.7 mph N/A   Light Drizzle
12:22 AM 77.0 °F 69.8 °F 78% 29.80 in 10.0 mi NE 11.5 mph - N/A   Mostly Cloudy
12:56 AM 76.1 °F 69.4 °F 80% 29.78 in 10.0 mi ENE 16.1 mph 20.7 mph 0.00 in   Overcast
12:57 AM 77.0 °F 69.8 °F 78% 29.78 in 10.0 mi NE 12.7 mph 20.7 mph N/A Rain Light Rain
1:13 AM 75.2 °F 69.8 °F 83% 29.78 in 10.0 mi ENE 11.5 mph 18.4 mph N/A   Overcast
1:53 AM 77.0 °F 69.8 °F 78% 29.76 in 10.0 mi NE 12.7 mph 21.9 mph N/A   Overcast
1:56 AM 76.1 °F 69.1 °F 79% 29.76 in 10.0 mi NE 10.4 mph 20.7 mph 0.00 in   Mostly Cloudy
1:58 AM 77.0 °F 69.8 °F 78% 29.76 in 10.0 mi NE 12.7 mph 21.9 mph N/A   Light Drizzle
2:08 AM 77.0 °F 69.8 °F 78% 29.76 in 10.0 mi NE 16.1 mph 26.5 mph N/A   Light Drizzle
2:21 AM 75.2 °F 69.8 °F 83% 29.75 in 10.0 mi ENE 11.5 mph 23.0 mph N/A   Overcast
2:44 AM 75.2 °F 69.8 °F 83% 29.73 in 10.0 mi NE 16.1 mph 23.0 mph N/A Rain Light Rain
2:53 AM 75.2 °F 69.8 °F 83% 29.71 in 10.0 mi NE 12.7 mph 24.2 mph N/A   Overcast
2:56 AM 75.9 °F 69.6 °F 81% 29.71 in 10.0 mi NE 12.7 mph 24.2 mph 0.01 in   Overcast
3:39 AM 75.2 °F 69.8 °F 83% 29.70 in 10.0 mi NE 13.8 mph 29.9 mph N/A Rain Light Rain
3:49 AM 75.2 °F 69.8 °F 83% 29.70 in 10.0 mi NE 13.8 mph 29.9 mph N/A   Overcast
3:53 AM 75.2 °F 69.8 °F 83% 29.70 in 10.0 mi NE 13.8 mph 29.9 mph N/A Rain Light Rain
3:56 AM 75.9 °F 69.6 °F 81% 29.70 in 10.0 mi NE 15.0 mph 29.9 mph 0.00 in Rain Light Rain
4:04 AM 75.2 °F 69.8 °F 83% 29.69 in 10.0 mi NE 12.7 mph 25.3 mph N/A   Overcast
4:34 AM 77.0 °F 69.8 °F 78% 29.67 in 10.0 mi NE 11.5 mph 25.3 mph N/A   Light Drizzle
4:56 AM 75.9 °F 69.3 °F 80% 29.65 in 10.0 mi NNE 13.8 mph 25.3 mph 0.00 in   Light Drizzle
4:57 AM 75.2 °F 69.8 °F 83% 29.64 in 10.0 mi NNE 12.7 mph 25.3 mph N/A   Mostly Cloudy
5:07 AM 75.2 °F 68.0 °F 78% 29.64 in 10.0 mi NE 10.4 mph 23.0 mph N/A   Scattered Clouds
5:15 AM 75.2 °F 69.8 °F 83% 29.64 in 10.0 mi NE 18.4 mph 25.3 mph N/A   Light Drizzle
5:25 AM 75.2 °F 69.8 °F 83% 29.64 in 10.0 mi NE 15.0 mph 25.3 mph N/A   Light Drizzle
5:47 AM 75.2 °F 69.8 °F 83% 29.65 in 10.0 mi NE 15.0 mph 24.2 mph N/A Rain Light Rain
5:56 AM 75.6 °F 68.9 °F 80% 29.64 in 10.0 mi NNE 15.0 mph 26.5 mph 0.00 in Rain Light Rain
6:56 AM 73.9 °F 68.4 °F 83% 29.62 in 9.0 mi NNE 12.7 mph 21.9 mph 0.06 in Rain Light Rain
7:56 AM 73.2 °F 67.6 °F 83% 29.59 in 7.0 mi NE 12.7 mph 23.0 mph 0.05 in Rain Light Rain
8:56 AM 72.7 °F 67.1 °F 83% 29.59 in 6.0 mi NNE 13.8 mph 27.6 mph 0.02 in Rain Rain
9:56 AM 72.3 °F 67.1 °F 84% 29.57 in 9.0 mi North 16.1 mph 26.5 mph 0.02 in Rain Rain
10:56 AM 70.7 °F 65.7 °F 84% 29.60 in 6.0 mi North 15.0 mph 21.9 mph 0.02 in Rain Rain
11:16 AM 69.8 °F 64.4 °F 83% 29.59 in 8.0 mi North 15.0 mph 25.3 mph N/A Rain Rain
11:36 AM 71.6 °F 66.2 °F 83% 29.59 in 10.0 mi North 17.3 mph 29.9 mph N/A Rain Light Rain
11:56 AM 70.9 °F 65.8 °F 84% 29.61 in 10.0 mi North 17.3 mph 29.9 mph 0.01 in   Light Drizzle
11:57 AM 71.6 °F 66.2 °F 83% 29.61 in 10.0 mi North 20.7 mph 31.1 mph N/A   Mostly Cloudy
12:37 PM 71.6 °F 66.2 °F 83% 29.62 in 10.0 mi North 13.8 mph 23.0 mph N/A   Mostly Cloudy
12:40 PM 71.6 °F 66.2 °F 83% 29.62 in 10.0 mi NNW 15.0 mph 24.2 mph N/A Rain Light Rain
12:50 PM 71.6 °F 64.4 °F 78% 29.62 in 10.0 mi NNW 16.1 mph 24.2 mph N/A   Overcast
12:56 PM 70.7 °F 64.6 °F 81% 29.62 in 10.0 mi NNW 16.1 mph 23.0 mph 0.01 in   Overcast
1:07 PM 69.8 °F 64.4 °F 83% 29.62 in 10.0 mi NNW 17.3 mph 29.9 mph N/A Rain Light Rain
1:26 PM 69.8 °F 64.4 °F 83% 29.63 in 9.0 mi North 18.4 mph 27.6 mph N/A   Mostly Cloudy
1:56 PM 70.5 °F 64.0 °F 80% 29.63 in 10.0 mi North 17.3 mph 29.9 mph 0.01 in   Overcast
2:56 PM 69.6 °F 63.1 °F 80% 29.65 in 10.0 mi NNW 16.1 mph 27.6 mph N/A   Overcast
3:00 PM 69.8 °F 62.6 °F 78% 29.65 in 10.0 mi NNW 12.7 mph 26.5 mph N/A   Light Drizzle
3:12 PM 69.8 °F 62.6 °F 78% 29.66 in 10.0 mi NNW 13.8 mph 26.5 mph N/A   Overcast
3:56 PM 69.6 °F 63.1 °F 80% 29.67 in 10.0 mi NNW 13.8 mph 26.5 mph 0.01 in   Overcast
4:56 PM 69.6 °F 61.3 °F 75% 29.72 in 10.0 mi NNW 11.5 mph 26.5 mph N/A   Overcast
5:16 PM 69.8 °F 60.8 °F 73% 29.72 in 10.0 mi NNW 13.8 mph 24.2 mph N/A   Overcast
5:56 PM 70.3 °F 60.8 °F 72% 29.74 in 10.0 mi NNW 12.7 mph 23.0 mph N/A   Mostly Cloudy
6:02 PM 69.8 °F 60.8 °F 73% 29.74 in 10.0 mi NNW 13.8 mph 25.3 mph N/A Rain Light Rain
6:11 PM 69.8 °F 60.8 °F 73% 29.74 in 10.0 mi NNW 11.5 mph 19.6 mph N/A   Mostly Cloudy
6:14 PM 71.6 °F 60.8 °F 69% 29.75 in 10.0 mi NNW 15.0 mph 21.9 mph N/A Rain Light Rain
6:24 PM 69.8 °F 62.6 °F 78% 29.75 in 10.0 mi NNW 12.7 mph 21.9 mph N/A   Overcast
6:56 PM 71.6 °F 61.7 °F 71% 29.76 in 10.0 mi North 9.2 mph - 0.00 in   Overcast
7:22 PM 71.6 °F 60.8 °F 69% 29.77 in 10.0 mi North 6.9 mph - N/A Rain Light Rain
7:31 PM 71.6 °F 60.8 °F 69% 29.77 in 10.0 mi North 6.9 mph - N/A   Mostly Cloudy
7:56 PM 70.5 °F 60.6 °F 71% 29.78 in 10.0 mi North 6.9 mph - 0.00 in   Mostly Cloudy
8:56 PM 68.7 °F 60.4 °F 75% 29.79 in 10.0 mi NNE 3.5 mph - N/A   Clear
9:56 PM 67.8 °F 59.9 °F 76% 29.79 in 10.0 mi NNE 3.5 mph - N/A   Clear
10:56 PM 66.6 °F 59.9 °F 79% 29.80 in 10.0 mi NNE 3.5 mph - N/A   Clear
11:56 PM 66.0 °F 59.7 °F 80% 29.81 in 10.0 mi Calm Calm - N/A   Clear